weather.gov     
National Weather Service

Terminal Aerodrome Forecast
NWS Homepage
This page is being discontinued on March 12, 2014.
The same data is available at this site. Please update your bookmarks.
Thank you, and we apologize for the inconvenience.
Please send an email to SR-SRH.Webmaster@noaa.gov with any concerns.


Current Version
Previous Version:    01  02  03  04  05  06  07  08  09  10  11  12  13  14  15  16  17  18  19  20  21  22  23  24  25  26  27  28  29  30  
   31  
[Printable]
600
FTUS44 KBMX 252300
TAFEET
TAF
KEET 252339Z 2600/2624 21010G17KT 6SM SHRA VCTS SCT045CB BKN060
      BKN110
     FM260200 29007KT P6SM SCT045 OVC060
      TEMPO 2604/2606 6SM SHRA BKN045 OVC070
     FM261200 31010G17KT P6SM OVC020
     FM262100 28007KT P6SM SKC=


U.S. Dept. of Commerce
NOAA National Weather Service
1325 East West Highway
Silver Spring, MD 20910
E-mail: w-nws.webmaster@noaa.gov
Page last modified: May 16, 2007
NATIONAL WEATHER SERVICE: for Safety, for Work, for Fun - FOR LIFE